ETD297 OMAA-UBBB

Flight info

Callsign ETD297
Flight time N/A
Altitude 34000
Route TULON M318 ASMUK W32 ROVAD L125 ELEDI N39 PIROG N23 KUPAT
Aircraft A320/M-S/C

Departure

Time N/A
Airport Zayed International Airport (OMAA)

Arrival

Time 2026-04-29 07:21
Airport Heydar Aliyev International Airport (UBBB)
Time Latitude Longitude Altitude Speed Heading
2026-04-29 04:53 24.95744 54.82348 24989 ft 453 kts 26°
2026-04-29 04:53 24.98473 54.84112 25355 ft 457 kts 26°
2026-04-29 04:54 25.01212 54.85898 25757 ft 458 kts 27°
2026-04-29 04:54 25.03965 54.87701 26126 ft 461 kts 26°
2026-04-29 04:54 25.06353 54.89271 26434 ft 463 kts 26°
2026-04-29 04:54 25.09094 54.91077 26805 ft 465 kts 26°
2026-04-29 04:55 25.11873 54.92913 27127 ft 468 kts 26°
2026-04-29 04:55 25.14672 54.94790 27473 ft 472 kts 29°
2026-04-29 04:55 25.17257 54.97074 27784 ft 481 kts 40°
2026-04-29 04:55 25.19536 54.99805 28135 ft 485 kts 45°
2026-04-29 04:56 25.21766 55.02614 28431 ft 488 kts 45°
2026-04-29 04:56 25.23998 55.05451 28779 ft 489 kts 45°
2026-04-29 04:56 25.26228 55.08293 29137 ft 491 kts 45°
2026-04-29 04:56 25.28470 55.11157 29416 ft 494 kts 45°
2026-04-29 04:57 25.30550 55.13525 29657 ft 490 kts 36°
2026-04-29 04:57 25.33249 55.15730 29992 ft 488 kts 30°
2026-04-29 04:57 25.36036 55.17878 30285 ft 489 kts 29°
2026-04-29 04:57 25.38831 55.20018 30552 ft 492 kts 29°
2026-04-29 04:58 25.41641 55.22168 30864 ft 493 kts 29°
2026-04-29 04:58 25.44479 55.24344 31116 ft 496 kts 30°
2026-04-29 04:58 25.47293 55.26572 31422 ft 497 kts 30°
2026-04-29 04:58 25.50102 55.28819 31680 ft 499 kts 30°
2026-04-29 04:59 25.52923 55.31078 31949 ft 501 kts 30°
2026-04-29 04:59 25.55702 55.33429 32224 ft 506 kts 37°
2026-04-29 04:59 25.58272 55.36091 32643 ft 505 kts 38°
2026-04-29 04:59 25.60832 55.38765 32982 ft 504 kts 38°
2026-04-29 05:00 25.63379 55.41431 33318 ft 504 kts 38°
2026-04-29 05:00 25.65924 55.44097 33613 ft 504 kts 38°
2026-04-29 05:00 25.68487 55.46784 33743 ft 506 kts 38°
2026-04-29 05:01 25.73555 55.52105 33786 ft 504 kts 38°
2026-04-29 05:01 25.78636 55.57449 33788 ft 503 kts 38°
2026-04-29 05:02 25.83723 55.62806 33788 ft 503 kts 38°
2026-04-29 05:02 25.89146 55.67543 33791 ft 493 kts 26°
2026-04-29 05:03 25.94982 55.71573 33789 ft 493 kts 25°
2026-04-29 05:03 26.00822 55.75580 33789 ft 493 kts 25°
2026-04-29 05:04 26.06939 55.78670 33787 ft 474 kts
2026-04-29 05:04 26.10167 55.79077 33789 ft 461 kts 353°
2026-04-29 05:04 26.13355 55.78928 33793 ft 458 kts 349°
2026-04-29 05:05 26.19717 55.78583 33787 ft 461 kts 353°
2026-04-29 05:05 26.26141 55.79644 33795 ft 474 kts
2026-04-29 05:06 26.32610 55.81076 33795 ft 474 kts
2026-04-29 05:06 26.39089 55.82511 33796 ft 474 kts
2026-04-29 05:07 26.45553 55.83939 33797 ft 474 kts
2026-04-29 05:07 26.51987 55.85361 33799 ft 474 kts
2026-04-29 05:08 26.58457 55.86790 33801 ft 474 kts
2026-04-29 05:08 26.64949 55.88224 33804 ft 475 kts
2026-04-29 05:09 26.71438 55.89658 33808 ft 475 kts
2026-04-29 05:09 26.77932 55.90954 33812 ft 470 kts 359°
2026-04-29 05:10 26.84423 55.91767 33817 ft 469 kts 358°
2026-04-29 05:10 26.90923 55.92561 33820 ft 471 kts 358°
2026-04-29 05:11 26.97398 55.93353 33825 ft 470 kts 358°
2026-04-29 05:11 27.03906 55.94151 33830 ft 470 kts 358°
2026-04-29 05:12 27.10421 55.94951 33836 ft 470 kts 358°
2026-04-29 05:12 27.16937 55.95751 33842 ft 470 kts 357°
2026-04-29 05:13 27.23407 55.96547 33849 ft 470 kts 357°
2026-04-29 05:13 27.29923 55.97350 33855 ft 470 kts 357°
2026-04-29 05:14 27.36426 55.98152 33861 ft 470 kts 357°
2026-04-29 05:14 27.42930 55.98956 33867 ft 470 kts 357°
2026-04-29 05:15 27.49443 55.99761 33874 ft 470 kts 357°
2026-04-29 05:15 27.55944 56.00565 33880 ft 470 kts 357°
2026-04-29 05:16 27.62453 56.01372 33885 ft 470 kts 356°
2026-04-29 05:16 27.68965 56.02180 33891 ft 470 kts 356°
2026-04-29 05:17 27.75463 56.02987 33938 ft 470 kts 356°
2026-04-29 05:17 27.81970 56.03797 33953 ft 470 kts 356°
2026-04-29 05:18 27.88478 56.04607 33961 ft 470 kts 356°
2026-04-29 05:18 27.94991 56.05419 33967 ft 470 kts 356°
2026-04-29 05:19 28.01454 56.06226 33973 ft 470 kts 356°
2026-04-29 05:19 28.07962 56.07039 33980 ft 470 kts 356°
2026-04-29 05:20 28.14444 56.07571 33985 ft 459 kts 349°
2026-04-29 05:20 28.20639 56.06597 33993 ft 442 kts 336°
2026-04-29 05:21 28.26610 56.04900 33998 ft 442 kts 336°
2026-04-29 05:21 28.32562 56.03180 34003 ft 441 kts 336°
2026-04-29 05:22 28.38463 56.01458 34009 ft 441 kts 336°
2026-04-29 05:22 28.44406 55.99711 34014 ft 441 kts 335°
2026-04-29 05:23 28.50353 55.97951 34019 ft 441 kts 335°
2026-04-29 05:23 28.56311 55.96180 34025 ft 442 kts 335°
2026-04-29 05:24 28.61255 55.94706 34029 ft 442 kts 335°
2026-04-29 05:24 28.67203 55.92927 34034 ft 442 kts 335°
2026-04-29 05:25 28.73164 55.91140 34040 ft 443 kts 335°
2026-04-29 05:25 28.79124 55.89351 34045 ft 442 kts 334°
2026-04-29 05:26 28.85085 55.87556 34053 ft 443 kts 334°
2026-04-29 05:26 28.91041 55.85752 34062 ft 442 kts 334°
2026-04-29 05:27 28.96959 55.83955 34067 ft 443 kts 334°
2026-04-29 05:27 29.05903 55.81238 34053 ft 443 kts 334°
2026-04-29 05:28 29.11861 55.79427 34057 ft 443 kts 334°
2026-04-29 05:28 29.17829 55.77611 34063 ft 444 kts 333°
2026-04-29 05:29 29.23803 55.75793 34068 ft 444 kts 333°
2026-04-29 05:29 29.29765 55.73976 34075 ft 443 kts 333°
2026-04-29 05:30 29.35723 55.72158 34119 ft 443 kts 333°
2026-04-29 05:30 29.41657 55.70345 34125 ft 445 kts 333°
2026-04-29 05:31 29.47632 55.68518 34128 ft 444 kts 333°
2026-04-29 05:31 29.53644 55.66678 34129 ft 444 kts 333°
2026-04-29 05:32 29.56537 55.65657 34130 ft 433 kts 326°
2026-04-29 05:32 29.59235 55.64217 34131 ft 425 kts 322°
2026-04-29 05:32 29.64537 55.61186 34131 ft 425 kts 322°
2026-04-29 05:33 29.69824 55.58141 34132 ft 425 kts 321°
2026-04-29 05:33 29.75100 55.55089 34132 ft 425 kts 321°
2026-04-29 05:34 29.80379 55.52025 34132 ft 424 kts 321°
2026-04-29 05:34 29.85650 55.48958 34132 ft 424 kts 321°
2026-04-29 05:35 29.90917 55.45887 34131 ft 424 kts 321°
2026-04-29 05:35 29.96184 55.42811 34131 ft 424 kts 321°
2026-04-29 05:36 30.01453 55.39729 34130 ft 424 kts 321°
2026-04-29 05:36 30.06725 55.36660 34128 ft 425 kts 321°
2026-04-29 05:37 30.12011 55.33596 34127 ft 425 kts 321°
2026-04-29 05:37 30.17265 55.30551 34126 ft 426 kts 321°
2026-04-29 05:38 30.22573 55.27473 34124 ft 426 kts 321°
2026-04-29 05:38 30.27866 55.24404 34127 ft 425 kts 321°
2026-04-29 05:39 30.33160 55.21328 34135 ft 426 kts 321°
2026-04-29 05:39 30.38459 55.18248 34133 ft 425 kts 321°
2026-04-29 05:40 30.43747 55.15171 34130 ft 425 kts 321°
2026-04-29 05:40 30.49037 55.12089 34127 ft 426 kts 321°
2026-04-29 05:41 30.54308 55.09014 34124 ft 427 kts 321°
2026-04-29 05:41 30.59617 55.05915 34121 ft 426 kts 321°
2026-04-29 05:42 30.64919 55.02815 34117 ft 426 kts 321°
2026-04-29 05:42 30.70228 54.99708 34114 ft 426 kts 321°
2026-04-29 05:43 30.75495 54.96620 34110 ft 426 kts 321°
2026-04-29 05:43 30.80772 54.93491 34106 ft 426 kts 321°
2026-04-29 05:44 30.86055 54.90357 34102 ft 426 kts 321°
2026-04-29 05:44 30.91335 54.87226 34098 ft 426 kts 321°
2026-04-29 05:45 30.96611 54.84098 34094 ft 426 kts 321°
2026-04-29 05:45 31.01908 54.80955 34090 ft 427 kts 321°
2026-04-29 05:46 31.07196 54.77816 34086 ft 427 kts 320°
2026-04-29 05:46 31.12450 54.74695 34082 ft 427 kts 320°
2026-04-29 05:47 31.17752 54.71541 34079 ft 426 kts 320°
2026-04-29 05:47 31.23036 54.68395 34075 ft 426 kts 320°
2026-04-29 05:48 31.28331 54.65238 34072 ft 426 kts 320°
2026-04-29 05:48 31.33615 54.62084 34068 ft 426 kts 320°
2026-04-29 05:49 31.38894 54.58929 34066 ft 426 kts 320°
2026-04-29 05:49 31.44178 54.55768 34063 ft 427 kts 320°
2026-04-29 05:50 31.49446 54.52597 34060 ft 428 kts 320°
2026-04-29 05:50 31.54741 54.49412 34058 ft 427 kts 320°
2026-04-29 05:51 31.60040 54.46226 34057 ft 427 kts 320°
2026-04-29 05:51 31.65336 54.43041 34055 ft 428 kts 320°
2026-04-29 05:52 31.70595 54.39877 34054 ft 428 kts 320°
2026-04-29 05:52 31.75888 54.36691 34053 ft 427 kts 320°
2026-04-29 05:53 31.81195 54.33491 34052 ft 429 kts 320°
2026-04-29 05:53 31.86511 54.30284 34052 ft 429 kts 320°
2026-04-29 05:54 31.92007 54.27371 34051 ft 447 kts 331°
2026-04-29 05:54 31.98175 54.25749 34052 ft 456 kts 335°
2026-04-29 05:55 32.04381 54.24220 34052 ft 456 kts 335°
2026-04-29 05:55 32.10593 54.22698 34053 ft 456 kts 335°
2026-04-29 05:56 32.16807 54.21183 34054 ft 456 kts 335°
2026-04-29 05:56 32.23027 54.19670 34055 ft 456 kts 335°
2026-04-29 05:57 32.29202 54.18169 34057 ft 456 kts 336°
2026-04-29 05:57 32.35428 54.16659 34059 ft 456 kts 336°
2026-04-29 05:58 32.41625 54.15096 34061 ft 454 kts 335°
2026-04-29 05:58 32.47787 54.13463 34063 ft 454 kts 335°
2026-04-29 05:59 32.53974 54.11819 34369 ft 460 kts 335°
2026-04-29 05:59 32.57139 54.10982 34768 ft 459 kts 335°
2026-04-29 05:59 32.60209 54.10171 35141 ft 457 kts 335°
2026-04-29 06:00 32.63306 54.09353 35513 ft 455 kts 335°
2026-04-29 06:00 32.66399 54.08534 35818 ft 455 kts 335°
2026-04-29 06:00 32.69495 54.07712 36003 ft 458 kts 335°
2026-04-29 06:00 32.72610 54.06886 36055 ft 457 kts 335°
2026-04-29 06:01 32.78808 54.05244 36067 ft 455 kts 335°
2026-04-29 06:01 32.84978 54.03607 36063 ft 455 kts 336°
2026-04-29 06:02 32.91178 54.02036 36063 ft 456 kts 336°
2026-04-29 06:02 32.97420 54.00468 36064 ft 458 kts 336°
2026-04-29 06:03 33.03662 53.98902 36065 ft 459 kts 337°
2026-04-29 06:03 33.09921 53.97330 36066 ft 460 kts 337°
2026-04-29 06:04 33.16196 53.95752 36067 ft 461 kts 337°
2026-04-29 06:04 33.22465 53.94275 36068 ft 463 kts 339°
2026-04-29 06:05 33.28809 53.92907 36068 ft 463 kts 339°
2026-04-29 06:05 33.35152 53.91542 36069 ft 463 kts 339°
2026-04-29 06:06 33.41512 53.90169 36069 ft 464 kts 339°
2026-04-29 06:06 33.47859 53.88764 36068 ft 460 kts 336°
2026-04-29 06:07 33.50850 53.87578 36069 ft 445 kts 326°
2026-04-29 06:07 33.53528 53.85845 36070 ft 432 kts 316°
2026-04-29 06:07 33.58152 53.81432 36071 ft 422 kts 310°
2026-04-29 06:08 33.62550 53.76791 36071 ft 420 kts 309°
2026-04-29 06:08 33.66891 53.72092 36071 ft 421 kts 308°
2026-04-29 06:09 33.71214 53.67387 36071 ft 422 kts 308°
2026-04-29 06:09 33.75557 53.62646 36071 ft 422 kts 308°
2026-04-29 06:10 33.79897 53.57898 36071 ft 421 kts 308°
2026-04-29 06:10 33.84230 53.53146 36071 ft 421 kts 308°
2026-04-29 06:11 33.88549 53.48401 36071 ft 420 kts 308°
2026-04-29 06:11 33.92841 53.43676 36070 ft 420 kts 308°
2026-04-29 06:12 33.97158 53.38917 36070 ft 420 kts 308°
2026-04-29 06:12 34.01468 53.34158 36069 ft 420 kts 308°
2026-04-29 06:13 34.05798 53.29368 36069 ft 424 kts 308°
2026-04-29 06:13 34.09414 53.25367 36069 ft 424 kts 308°
2026-04-29 06:14 34.13759 53.20550 36067 ft 423 kts 308°
2026-04-29 06:14 34.18094 53.15736 36066 ft 424 kts 308°
2026-04-29 06:15 34.22435 53.10910 36065 ft 424 kts 308°
2026-04-29 06:15 34.26771 53.06082 36064 ft 424 kts 308°
2026-04-29 06:16 34.31090 53.01264 36063 ft 425 kts 308°
2026-04-29 06:16 34.35435 52.96412 36061 ft 425 kts 308°
2026-04-29 06:17 34.39773 52.91559 36060 ft 425 kts 308°
2026-04-29 06:17 34.44126 52.86682 36058 ft 426 kts 308°
2026-04-29 06:18 34.48474 52.81804 36056 ft 426 kts 308°
2026-04-29 06:18 34.52823 52.76916 36054 ft 426 kts 308°
2026-04-29 06:19 34.57161 52.72035 36052 ft 426 kts 308°
2026-04-29 06:19 34.61504 52.67140 36049 ft 426 kts 308°
2026-04-29 06:20 34.65843 52.62242 36047 ft 425 kts 308°
2026-04-29 06:20 34.70178 52.57341 36045 ft 425 kts 308°
2026-04-29 06:21 34.74492 52.52456 36042 ft 427 kts 308°
2026-04-29 06:21 34.78840 52.47528 36039 ft 427 kts 308°
2026-04-29 06:22 34.83186 52.42592 36036 ft 427 kts 308°
2026-04-29 06:22 34.87495 52.37628 36033 ft 423 kts 305°
2026-04-29 06:23 34.91132 52.32129 36031 ft 412 kts 295°
2026-04-29 06:23 34.93967 52.26127 36028 ft 408 kts 291°
2026-04-29 06:24 34.96684 52.20065 36025 ft 409 kts 291°
2026-04-29 06:24 34.99404 52.13949 36022 ft 409 kts 291°
2026-04-29 06:25 35.03073 52.08466 36019 ft 432 kts 312°
2026-04-29 06:25 35.05626 52.06421 36017 ft 448 kts 324°
2026-04-29 06:25 35.08547 52.05058 36019 ft 461 kts 334°
2026-04-29 06:26 35.14727 52.02831 36046 ft 464 kts 335°
2026-04-29 06:26 35.20937 52.00624 36049 ft 465 kts 335°
2026-04-29 06:27 35.27172 51.98432 36047 ft 468 kts 335°
2026-04-29 06:27 35.33448 51.96239 36045 ft 469 kts 336°
2026-04-29 06:28 35.39723 51.94057 36043 ft 469 kts 336°
2026-04-29 06:28 35.46017 51.91874 36027 ft 469 kts 336°
2026-04-29 06:29 35.52299 51.89700 36021 ft 469 kts 336°
2026-04-29 06:29 35.58581 51.87528 36021 ft 469 kts 336°
2026-04-29 06:30 35.67972 51.84282 36022 ft 469 kts 336°
2026-04-29 06:31 35.74255 51.82110 36043 ft 469 kts 336°
2026-04-29 06:31 35.80544 51.79933 36047 ft 469 kts 336°
2026-04-29 06:32 35.86824 51.77758 36049 ft 469 kts 336°
2026-04-29 06:32 35.93106 51.75576 36052 ft 468 kts 335°
2026-04-29 06:33 35.99297 51.73167 36056 ft 466 kts 334°
2026-04-29 06:33 36.05492 51.70706 36061 ft 468 kts 334°
2026-04-29 06:34 36.11691 51.68246 36068 ft 467 kts 334°
2026-04-29 06:34 36.17885 51.65788 36075 ft 467 kts 334°
2026-04-29 06:35 36.24079 51.63329 36083 ft 467 kts 334°
2026-04-29 06:35 36.30281 51.60866 36090 ft 468 kts 334°
2026-04-29 06:36 36.36468 51.58405 36096 ft 468 kts 334°
2026-04-29 06:36 36.42643 51.55826 36099 ft 460 kts 326°
2026-04-29 06:36 36.45240 51.53763 36103 ft 443 kts 312°
2026-04-29 06:37 36.47474 51.51162 36108 ft 437 kts 307°
2026-04-29 06:37 36.51627 51.45646 36108 ft 436 kts 304°
2026-04-29 06:38 36.55720 51.40074 36108 ft 436 kts 304°
2026-04-29 06:38 36.59782 51.34534 36108 ft 435 kts 304°
2026-04-29 06:39 36.63865 51.28951 36108 ft 436 kts 304°
2026-04-29 06:39 36.67957 51.23356 36105 ft 436 kts 304°
2026-04-29 06:40 36.72058 51.17753 36103 ft 437 kts 304°
2026-04-29 06:40 36.76163 51.12148 36099 ft 438 kts 304°
2026-04-29 06:41 36.80276 51.06536 36094 ft 438 kts 304°
2026-04-29 06:41 36.84392 51.00922 36090 ft 439 kts 304°
2026-04-29 06:42 36.88668 50.95497 36081 ft 451 kts 316°
2026-04-29 06:42 36.91459 50.93580 36090 ft 465 kts 329°
2026-04-29 06:42 36.94497 50.92132 36089 ft 469 kts 333°
2026-04-29 06:43 37.00720 50.89536 36086 ft 471 kts 334°
2026-04-29 06:43 37.06960 50.86996 36086 ft 471 kts 335°
2026-04-29 06:44 37.13200 50.84461 36087 ft 471 kts 335°
2026-04-29 06:44 37.19435 50.81928 36099 ft 472 kts 335°
2026-04-29 06:45 37.25652 50.79398 36082 ft 468 kts 335°
2026-04-29 06:45 37.31893 50.76852 36096 ft 473 kts 335°
2026-04-29 06:46 37.38133 50.74311 36089 ft 463 kts 335°
2026-04-29 06:46 37.44184 50.71874 36090 ft 455 kts 335°
2026-04-29 06:47 37.50192 50.69457 36091 ft 457 kts 335°
2026-04-29 06:47 37.56285 50.66998 36092 ft 457 kts 335°
2026-04-29 06:48 37.62300 50.64568 36095 ft 457 kts 335°
2026-04-29 06:48 37.68378 50.62115 36097 ft 458 kts 335°
2026-04-29 06:49 37.74339 50.59407 36095 ft 448 kts 324°
2026-04-29 06:49 37.76901 50.57262 36098 ft 436 kts 312°
2026-04-29 06:49 37.79099 50.54680 36102 ft 430 kts 307°
2026-04-29 06:50 37.83231 50.49218 36101 ft 429 kts 305°
2026-04-29 06:50 37.87315 50.43717 36102 ft 429 kts 305°
2026-04-29 06:51 37.91410 50.38201 36103 ft 430 kts 305°
2026-04-29 06:51 37.95515 50.32681 36104 ft 430 kts 305°
2026-04-29 06:52 37.99621 50.27183 36108 ft 429 kts 305°
2026-04-29 06:52 38.03704 50.21707 36105 ft 430 kts 305°
2026-04-29 06:53 38.07823 50.16171 36108 ft 431 kts 305°
2026-04-29 06:53 38.11943 50.10636 36109 ft 431 kts 305°
2026-04-29 06:54 38.16235 50.05288 36105 ft 442 kts 316°
2026-04-29 06:54 38.18971 50.03343 36111 ft 457 kts 330°
2026-04-29 06:54 38.22070 50.02258 36112 ft 471 kts 345°
2026-04-29 06:55 38.28674 50.01819 36117 ft 476 kts 352°
2026-04-29 06:55 38.35238 50.01509 35920 ft 469 kts 352°
2026-04-29 06:55 38.38499 50.01365 35152 ft 471 kts 352°
2026-04-29 06:56 38.41809 50.01219 34259 ft 477 kts 353°
2026-04-29 06:56 38.45139 50.01075 33476 ft 479 kts 353°
2026-04-29 06:56 38.48491 50.00935 32574 ft 483 kts 353°
2026-04-29 06:56 38.51871 50.00791 31692 ft 487 kts 354°
2026-04-29 06:57 38.55255 50.00655 30932 ft 486 kts 355°
2026-04-29 06:57 38.58630 50.00523 30109 ft 485 kts 355°
2026-04-29 06:57 38.62014 50.00393 29213 ft 486 kts 355°
2026-04-29 06:57 38.65395 50.00265 28307 ft 486 kts 356°
2026-04-29 06:58 38.68748 50.00144 27390 ft 486 kts 356°
2026-04-29 06:58 38.72121 50.00025 26386 ft 482 kts 355°
2026-04-29 06:58 38.75451 49.99909 25383 ft 473 kts 355°
2026-04-29 06:58 38.77646 49.99835 25027 ft 459 kts 355°
2026-04-29 06:59 38.80745 49.99733 24409 ft 444 kts 355°
2026-04-29 06:59 38.83791 49.99635 23781 ft 430 kts 355°
2026-04-29 06:59 38.86737 49.99543 23155 ft 418 kts 355°
2026-04-29 06:59 38.89602 49.99454 22530 ft 408 kts 356°
2026-04-29 07:00 38.92407 49.99368 21907 ft 402 kts 356°
2026-04-29 07:00 38.95219 49.99280 21278 ft 402 kts 356°
2026-04-29 07:00 38.98011 49.99190 20655 ft 402 kts 356°
2026-04-29 07:00 39.00814 49.99097 20028 ft 402 kts 356°
2026-04-29 07:01 39.03602 49.99004 19403 ft 401 kts 356°
2026-04-29 07:01 39.06395 49.98909 18776 ft 400 kts 356°
2026-04-29 07:01 39.09167 49.98815 18151 ft 398 kts 356°
2026-04-29 07:01 39.11934 49.98721 17525 ft 397 kts 357°
2026-04-29 07:02 39.14685 49.98627 16900 ft 395 kts 357°
2026-04-29 07:02 39.17438 49.98533 16271 ft 393 kts 357°
2026-04-29 07:02 39.20158 49.98440 15647 ft 391 kts 357°
2026-04-29 07:02 39.22848 49.98349 15027 ft 389 kts 357°
2026-04-29 07:03 39.25547 49.98256 14401 ft 387 kts 357°
2026-04-29 07:03 39.28229 49.98164 13776 ft 385 kts 357°
2026-04-29 07:03 39.30901 49.98072 13149 ft 383 kts 357°
2026-04-29 07:03 39.33521 49.97983 12987 ft 367 kts 357°
2026-04-29 07:04 39.36011 49.97901 12997 ft 349 kts 357°
2026-04-29 07:04 39.38377 49.97826 13000 ft 332 kts 357°
2026-04-29 07:04 39.40683 49.97753 13003 ft 331 kts 357°
2026-04-29 07:04 39.42976 49.97678 13003 ft 330 kts 357°
2026-04-29 07:05 39.45269 49.97600 13001 ft 329 kts 357°
2026-04-29 07:05 39.47562 49.97520 13003 ft 330 kts 357°
2026-04-29 07:05 39.49859 49.97438 13003 ft 330 kts 357°
2026-04-29 07:05 39.52148 49.97356 13003 ft 329 kts 357°
2026-04-29 07:06 39.54443 49.97273 13001 ft 329 kts 357°
2026-04-29 07:06 39.56731 49.97190 13002 ft 330 kts 357°
2026-04-29 07:06 39.59027 49.97106 13002 ft 329 kts 357°
2026-04-29 07:06 39.61285 49.97024 13002 ft 329 kts 357°
2026-04-29 07:07 39.63578 49.96940 13002 ft 329 kts 357°
2026-04-29 07:07 39.65872 49.96856 13004 ft 329 kts 357°
2026-04-29 07:07 39.68164 49.96772 13005 ft 329 kts 357°
2026-04-29 07:07 39.70462 49.96688 13005 ft 329 kts 357°
2026-04-29 07:08 39.72718 49.96605 12970 ft 317 kts 357°
2026-04-29 07:08 39.74882 49.96527 12892 ft 306 kts 357°
2026-04-29 07:08 39.76979 49.96457 12812 ft 296 kts 359°
2026-04-29 07:08 39.78987 49.96783 12728 ft 286 kts
2026-04-29 07:09 39.80898 49.97212 12551 ft 281 kts
2026-04-29 07:09 39.82829 49.97653 12198 ft 282 kts
2026-04-29 07:09 39.84755 49.98093 11915 ft 280 kts
2026-04-29 07:09 39.86680 49.98533 11648 ft 279 kts
2026-04-29 07:10 39.88579 49.98968 11427 ft 280 kts
2026-04-29 07:10 39.90544 49.99417 10704 ft 293 kts 10°
2026-04-29 07:10 39.92588 49.99879 9948 ft 302 kts 10°
2026-04-29 07:10 39.94670 50.00351 9207 ft 305 kts 10°
2026-04-29 07:11 39.96777 50.00831 8451 ft 308 kts 11°
2026-04-29 07:11 39.98891 50.01313 7695 ft 308 kts 10°
2026-04-29 07:11 40.01014 50.01799 6947 ft 308 kts 10°
2026-04-29 07:11 40.03126 50.02285 6195 ft 307 kts 10°
2026-04-29 07:12 40.05218 50.02763 5445 ft 304 kts 10°
2026-04-29 07:12 40.07296 50.03238 5039 ft 300 kts 11°
2026-04-29 07:12 40.09031 50.03644 4608 ft 289 kts 11°
2026-04-29 07:12 40.10960 50.04094 4149 ft 272 kts 10°
2026-04-29 07:13 40.12721 50.04500 4014 ft 243 kts 10°
2026-04-29 07:13 40.14333 50.04874 3986 ft 226 kts 10°
2026-04-29 07:13 40.15873 50.05233 4060 ft 226 kts 10°
2026-04-29 07:13 40.17368 50.05581 3962 ft 218 kts 10°
2026-04-29 07:14 40.18960 50.05950 4035 ft 247 kts 10°
2026-04-29 07:14 40.20768 50.06367 4011 ft 278 kts 10°
2026-04-29 07:14 40.22826 50.06839 4115 ft 329 kts 10°
2026-04-29 07:14 40.24948 50.07323 4901 ft 357 kts 10°
2026-04-29 07:15 40.27332 50.07877 7086 ft 349 kts 10°
2026-04-29 07:15 40.29494 50.08300 6025 ft 0 kts
2026-04-29 07:15 40.30891 50.08238 2939 ft 0 kts 355°
2026-04-29 07:16 40.31537 50.08153 3357 ft 5384 kts 351°
2026-04-29 07:16 40.23330 50.09916 3515 ft 275 kts 355°
2026-04-29 07:16 40.24966 50.09709 3121 ft 263 kts 354°
2026-04-29 07:16 40.26739 50.09408 2876 ft 255 kts 353°
2026-04-29 07:17 40.28515 50.09034 2250 ft 257 kts 351°
2026-04-29 07:17 40.30228 50.08612 1995 ft 237 kts 349°
2026-04-29 07:17 40.31758 50.08202 2013 ft 213 kts 349°
2026-04-29 07:17 40.33094 50.07909 2051 ft 173 kts 351°
2026-04-29 07:18 40.34120 50.07676 1989 ft 129 kts 350°
2026-04-29 07:18 40.34875 50.07490 1606 ft 106 kts 350°
2026-04-29 07:18 40.35703 50.07310 1202 ft 123 kts 346°
2026-04-29 07:18 40.36541 50.07088 1274 ft 128 kts 346°
2026-04-29 07:19 40.37429 50.06889 1409 ft 130 kts 347°
2026-04-29 07:19 40.38322 50.06591 1437 ft 139 kts 339°
2026-04-29 07:19 40.39304 50.06203 1486 ft 150 kts 341°
2026-04-29 07:19 40.40284 50.05896 1364 ft 138 kts 343°
2026-04-29 07:20 40.41254 50.05585 1097 ft 146 kts 342°
2026-04-29 07:20 40.42232 50.05226 832 ft 146 kts 342°
2026-04-29 07:20 40.43211 50.04923 616 ft 146 kts 343°
2026-04-29 07:20 40.44187 50.04613 399 ft 142 kts 342°
2026-04-29 07:21 40.45137 50.04302 163 ft 137 kts 342°
2026-04-29 07:21 40.46029 50.04026 30 ft 121 kts 342°
2026-04-29 07:21 40.46655 50.03831 25 ft 52 kts 345°
2026-04-29 07:21 40.46799 50.03849 25 ft 14 kts 86°
2026-04-29 07:22 40.46816 50.03959 25 ft 11 kts 78°
2026-04-29 07:22 40.46837 50.04084 25 ft 22 kts 77°
2026-04-29 07:22 40.46883 50.04300 25 ft 25 kts 71°
2026-04-29 07:22 40.46905 50.04527 25 ft 25 kts 88°
2026-04-29 07:23 40.46912 50.04750 25 ft 24 kts 87°
2026-04-29 07:23 40.46905 50.04918 25 ft 12 kts 128°
2026-04-29 07:23 40.46824 50.04928 25 ft 12 kts 182°
2026-04-29 07:23 40.46749 50.04895 25 ft 11 kts 206°
2026-04-29 07:24 40.46690 50.04874 25 ft 8 kts 147°
2026-04-29 07:24 40.46673 50.04916 25 ft 5 kts 114°
2026-04-29 07:24 40.46671 50.04921 25 ft 0 kts 117°